Find Local Weather

World > North America > United States > Illinois

Matteson, Illinois Regional Weather

Lat: 41.51N, Lon: 87.74W
Wx Zone: ILZ014
Feedback
Expires:201804241500;;428855
ASUS43 KLOT 241408
RWRIL 

ILLINOIS REGIONAL WEATHER ROUNDUP
NATIONAL WEATHER SERVICE CHICAGO/ROMEOVILLE IL
900 AM CDT TUE APR 24 2018

NOTE: "FAIR" INDICATES FEW OR NO CLOUDS BELOW 12,000 FEET WITH NO
SIGNIFICANT WEATHER AND/OR OBSTRUCTIONS TO VISIBILITY.

* THESE STATIONS ARE NOT UNDER NWS QUALITY CONTROL. THEY ALSO MAY NOT
  REPORT WEATHER SUCH AS PRECIPITATION OR FOG.


ILZ005-006-012>014-019>023-241500-
NORTHEAST ILLINOIS
  
CITY           SKY/WX    TMP DP  RH WIND       PRES   REMARKS
CHICAGO-OHARE  PTSUNNY   52  41  66 N7        30.06S                  
CHICAGO-MIDWAY PTSUNNY   56  45  66 N6        30.06S                  
AURORA         CLOUDY    55  45  68 NE5       30.05F                  
LANSING*       FAIR      53  48  84 NE6       30.06S                  
JOLIET*        PTSUNNY   57  49  73 N5        30.05F                  
WAUKEGAN       PTSUNNY   50  37  61 VRB3      30.07F                  
DUPAGE AIRPORT CLOUDY    55  45  68 N6        30.05F                  
KANKAKEE*      CLOUDY    52  51  97 NE8       30.05S                  
WHEELING       CLOUDY    53  39  59 N3        30.08F                  
MORRIS*        CLOUDY    55  47  73 N6        30.04F                  
ROMEOVILLE*    FAIR      56  45  68 N6        30.05F                  
NORTHERLY ISL    N/A     48  41  76 NW7         N/A                   
$$


SKY/WX - Weather  TMP - Temperature  DP - Dewpoint  RH - Relative Humidity
WIND - Wind Direction/Speed PRES - Barometric Pressure